Orlando, FL

9:40 AM EDT on August 30, 2016 (GMT -0400)
Executive

Weather History for KORL - October, 2013

Change the Weather History Date:

Wednesday, October 16, 2013

  Actual Average Record
Temperature  
Mean Temperature 79 °F -  
Max Temperature 88 °F 80 °F 88 °F (2013)
Min Temperature 71 °F 65 °F 53 °F (2004)
Cooling Degree Days 14    
Growing Degree Days 29 (Base 50)    
Moisture  
Dew Point 69 °F    
Average Humidity 81    
Maximum Humidity 100    
Minimum Humidity 44    
Precipitation  
Precipitation 0.00 in - - ()
Sea Level Pressure  
Sea Level Pressure 29.96 in    
Wind  
Wind Speed 3 mph (NNW)    
Max Wind Speed 8 mph    
Max Gust Speed -    
Visibility 7 miles    
Events      
Averages and records for this station are not official NWS values.
T = Trace of Precipitation, MM = Missing Value Source: NWS Daily Summary

Daily Weather History Graph

Daily Weather History Graph

Search for Another Location

Airport or City:

Trip Planner

Search our weather history database for the weather conditions in past years. The results will help you decide how hot, cold, wet, or windy it might be!

Date:

Astronomy

Oct. 16, 2013 Rise Set
Actual Time 7:26 AM EDT 6:54 PM EDT
Civil Twilight 7:03 AM EDT 7:18 PM EDT
Nautical Twilight 6:35 AM EDT 7:45 PM EDT
Astronomical Twilight 6:08 AM EDT 8:12 PM EDT
Moon 5:25 PM EDT (10/16) 5:03 AM EDT (10/16)
Length of Visible Light 12h 15m
Length of Day
11h 27m
Waxing Gibbous, 94% of the Moon is Illuminated
Oct 16
Waxing Gibbous
Oct 18
Full
Oct 26
Last Quarter
Nov 3
New
Nov 10
First Quarter

Hourly Weather History & Observations

Time (EDT) Temp. Heat Index Dew Point Humidity Pressure Visibility Wind Dir Wind Speed Gust Speed Precip Events Conditions
12:31 AM 73.4 °F - 71.6 °F 94% 29.96 in 10.0 mi Calm Calm - N/A   Partly Cloudy
12:44 AM 73.4 °F - 71.6 °F 94% 29.96 in 10.0 mi North 3.5 mph - N/A   Mostly Cloudy
12:53 AM 73.0 °F - 71.1 °F 93% 29.97 in 10.0 mi North 4.6 mph - N/A   Overcast
1:53 AM 72.0 °F - 71.1 °F 97% 29.96 in 10.0 mi NW 3.5 mph - N/A   Overcast
2:53 AM 72.0 °F - 71.1 °F 97% 29.96 in 2.0 mi NW 5.8 mph - N/A   Overcast
3:00 AM 71.6 °F - 71.6 °F 100% 29.95 in 1.5 mi Calm Calm - N/A   Overcast
3:09 AM 71.6 °F - 71.6 °F 100% 29.95 in 2.0 mi NW 4.6 mph - N/A   Overcast
3:16 AM 71.6 °F - 71.6 °F 100% 29.95 in 1.0 mi NW 5.8 mph - N/A   Overcast
3:53 AM 72.0 °F - 71.1 °F 97% 29.95 in 1.8 mi NW 4.6 mph - N/A   Overcast
4:15 AM 71.6 °F - 71.6 °F 100% 29.94 in 2.5 mi NW 5.8 mph - N/A   Overcast
4:23 AM 71.6 °F - 71.6 °F 100% 29.94 in 4.0 mi NW 3.5 mph - N/A   Overcast
4:51 AM 71.6 °F - 71.6 °F 100% 29.94 in 2.0 mi NW 4.6 mph - N/A   Overcast
4:53 AM 72.0 °F - 71.1 °F 97% 29.96 in 2.5 mi NW 3.5 mph - N/A   Overcast
5:04 AM 71.6 °F - 71.6 °F 100% 29.94 in 4.0 mi NNW 3.5 mph - N/A   Overcast
5:53 AM - - - N/A% 29.95 in 5.0 mi NW 4.6 mph - N/A   Haze
6:53 AM - - - N/A% 29.97 in 5.0 mi WNW 3.5 mph - N/A   Haze
7:53 AM - - - N/A% 29.97 in 2.5 mi North 3.5 mph - N/A   Overcast
8:15 AM - - - N/A% 29.97 in 3.0 mi NW 3.5 mph - N/A   Overcast
8:53 AM - - - N/A% 29.99 in 10.0 mi WNW 4.6 mph - N/A   Overcast
9:53 AM 73.0 °F - 69.1 °F 87% 30.01 in 10.0 mi NNW 4.6 mph - N/A   Overcast
10:10 AM 73.4 °F - 68.0 °F 83% 30.00 in 10.0 mi NNW 4.6 mph - N/A   Overcast
10:53 AM 75.9 °F - 68.0 °F 76% 30.01 in 10.0 mi NW 3.5 mph - N/A   Overcast
11:23 AM 77.0 °F - 68.0 °F 74% 29.99 in 10.0 mi Variable 3.5 mph - N/A   Scattered Clouds
11:53 AM 80.1 °F 82.7 °F 68.0 °F 67% 30.00 in 10.0 mi Calm Calm - N/A   Clear
12:53 PM 82.9 °F 85.4 °F 66.9 °F 58% 29.98 in 10.0 mi Calm Calm - N/A   Partly Cloudy
1:53 PM 84.9 °F 87.1 °F 66.0 °F 53% 29.96 in 10.0 mi North 8.1 mph - N/A   Mostly Cloudy
2:53 PM 86.0 °F 87.3 °F 64.0 °F 48% 29.94 in 10.0 mi Variable 3.5 mph - N/A   Clear
3:53 PM 86.0 °F 87.3 °F 64.0 °F 48% 29.92 in 10.0 mi Calm Calm - N/A   Clear
4:53 PM 87.1 °F 87.8 °F 63.0 °F 44% 29.92 in 10.0 mi Calm Calm - N/A   Clear
5:53 PM 84.9 °F 85.4 °F 62.1 °F 46% 29.91 in 10.0 mi North 3.5 mph - N/A   Clear
6:53 PM 84.0 °F 84.5 °F 62.1 °F 47% 29.93 in 10.0 mi Calm Calm - N/A   Clear
7:53 PM 79.0 °F - 71.1 °F 77% 29.94 in 10.0 mi NE 6.9 mph - N/A   Clear
8:53 PM 77.0 °F - 70.0 °F 79% 29.96 in 10.0 mi NNE 4.6 mph - N/A   Clear
9:53 PM 77.0 °F - 71.1 °F 82% 29.99 in 10.0 mi North 3.5 mph - N/A   Clear
10:53 PM 75.9 °F - 71.1 °F 85% 29.99 in 10.0 mi NE 3.5 mph - N/A   Clear
11:53 PM 75.0 °F - 71.1 °F 87% 29.99 in 10.0 mi Calm Calm - N/A   Clear